Location: Ponte Samoggia
(44.5667°N, 11.1333°E)
Time: 22:32:18
(UTC+00:00)

USA 229 DEB - Pass Details

Date: 26 May 2022
Orbit: 934 x 1278 km, 63.4° (Epoch: 24 May)

Event Time Altitude Azimuth Distance (km) Brightness Sun altitude
Rises 01:02:31 0° 317° (NW) 4,017 7.0 -19.7°
Reaches altitude 10° 01:05:22 10° 309° (NW) 3,101 6.2 -19.5°
Maximum altitude 01:12:05 37° 246° (WSW) 1,809 4.5 -18.9°
Enters shadow 01:15:06 28° 205° (SSW) 2,162 4.7 -18.6°
